Theta_e
332 331 337 337 334 334 334 335 335 339 339 338 339 341 339 338 337 337 336 334 332 331 332 332 331 329 331 330 327 326 320 323 326 323 321 319 316 317 318 318 318 318 318 317
328 330 335 333 334 334 335 335 340 338 339 338 340 341 338 337 336 334 333 335 333 330 330 329 329 330 331 328 326 325 321 326 326 324 322 320 319 317 318 317 316 316 318 316
328 330 332 332 334 336 334 336 337 335 339 337 338 341 339 336 333 333 332 331 332 330 329 330 330 331 330 330 328 321 324 326 325 325 321 319 318 319 318 318 318 317 318 318
329 331 332 333 334 336 335 337 335 334 335 336 340 337 341 337 335 331 329 330 330 330 329 328 328 329 332 331 330 327 328 327 325 325 321 320 318 318 316 317 318 318 318 317
329 332 332 332 336 335 334 336 335 334 333 334 339 341 341 335 334 331 329 329 328 329 329 328 329 328 327 328 330 330 329 327 324 325 322 319 318 317 317 318 318 318 317 317
330 333 332 332 335 335 335 335 335 335 335 338 339 341 341 336 332 329 327 327 327 326 327 327 327 328 326 325 327 327 326 328 326 325 323 321 320 319 318 318 318 317 316 315
331 334 334 333 336 336 336 337 335 333 340 340 339 336 338 332 330 328 327 326 324 324 325 324 325 326 324 325 324 322 324 323 325 324 322 320 320 318 317 317 317 317 315 315
333 338 336 333 334 335 335 333 332 332 333 330 336 338 335 331 328 327 326 324 323 323 323 323 324 323 322 323 323 324 325 323 323 324 321 320 320 319 318 316 317 316 315 314
335 337 333 332 332 331 330 331 333 332 327 330 338 335 330 328 326 325 325 324 324 323 323 323 323 323 323 322 321 321 321 322 323 323 322 320 319 318 318 317 316 316 315 315
335 337 335 333 330 329 331 329 327 329 336 334 336 337 335 329 327 326 324 324 323 323 322 321 320 320 319 319 319 319 320 321 321 322 321 320 317 317 318 318 316 317 316 316
333 334 334 331 331 330 327 329 332 332 330 330 328 338 330 329 328 326 324 323 323 323 321 319 316 315 314 314 314 315 315 316 317 318 319 319 316 315 317 317 314 317 316 317
331 331 329 329 329 327 327 329 330 332 334 331 329 333 328 327 325 325 324 322 321 320 315 313 312 313 313 313 313 313 313 313 314 316 316 318 318 316 314 314 317 314 316 317
334 331 333 332 332 330 329 328 327 329 329 328 331 335 328 326 324 323 323 321 319 314 313 313 313 313 313 313 314 313 313 313 313 313 315 317 317 317 315 313 313 313 315 316
330 333 331 331 333 331 328 327 326 327 329 330 329 331 329 326 325 322 321 318 314 314 314 314 314 313 312 313 313 312 312 313 313 313 315 316 316 316 314 312 312 312 315 316
332 334 330 328 327 327 327 327 327 328 327 328 328 327 328 325 323 321 318 314 314 314 314 314 314 313 312 312 312 312 312 312 313 313 315 313 314 316 314 313 312 313 316 316
330 335 330 330 327 327 327 327 327 327 327 326 326 326 326 324 320 319 315 315 314 314 314 314 314 313 313 312 312 312 311 312 312 311 313 314 313 316 314 314 315 313 315 315
333 333 332 332 329 328 331 330 327 327 326 326 327 327 324 322 319 315 315 314 314 314 314 314 314 313 313 313 313 312 312 311 312 312 312 314 313 315 315 314 314 315 315 317
334 333 331 333 331 334 335 330 328 328 326 325 324 323 321 317 314 313 314 314 314 314 315 314 314 314 314 314 313 312 312 313 312 311 311 313 313 314 313 313 314 315 316 316
333 333 333 334 333 330 333 331 329 326 326 326 325 321 319 315 314 316 315 315 315 315 315 314 314 314 314 313 313 312 313 312 312 312 312 311 313 311 313 312 312 315 316 316
335 335 335 332 333 331 336 330 327 325 327 326 323 319 315 314 317 318 315 315 315 315 314 313 312 312 312 311 312 311 312 312 312 311 310 310 313 314 312 313 312 312 314 315
337 337 333 332 331 332 331 327 323 327 331 323 318 315 314 316 316 315 315 315 314 313 312 312 311 310 310 310 309 309 309 309 308 308 308 310 312 312 313 313 313 313 313 314
334 336 331 331 330 330 325 324 324 325 320 317 314 315 315 315 315 315 315 313 312 311 311 310 309 309 309 309 307 307 307 306 307 307 308 308 311 312 312 313 312 313 312 313
335 337 338 334 334 328 324 324 322 318 317 315 315 315 315 315 315 314 313 310 312 311 310 309 309 309 308 307 306 306 306 305 306 307 307 307 309 310 311 312 312 312 313 312
335 331 331 333 329 325 321 319 317 316 316 315 315 315 315 315 314 311 310 311 311 309 309 309 309 308 307 306 306 306 304 306 305 306 306 307 308 308 309 311 312 313 311 311
332 330 330 330 327 322 320 319 318 316 315 315 315 315 314 314 311 310 310 311 309 309 309 309 308 307 306 306 304 304 305 304 305 306 307 306 305 306 307 309 310 311 311 308
330 331 330 330 326 322 322 320 318 315 316 315 314 314 313 310 310 310 311 309 308 309 309 308 308 306 306 304 303 303 304 304 305 304 305 305 304 305 307 307 308 309 310 308
Wind_Speed
14 12 7 26 10 10 11 11 8 11 6 11 4 8 8 7 7 7 6 6 7 4 11 16 17 16 14 13 14 16 10 11 10 8 10 14 13 10 9 10 10 12 9 10
12 10 1 8 7 9 12 12 12 5 4 5 7 10 6 6 6 3 5 7 9 8 6 10 15 15 17 20 16 17 14 12 11 9 9 12 11 10 10 11 13 13 10 11
12 9 3 6 11 8 15 3 13 16 5 12 8 12 8 7 5 3 0 4 8 13 9 11 9 11 16 18 18 15 14 14 13 10 8 11 15 14 9 9 12 16 12 11
9 7 6 13 13 10 16 4 10 13 8 7 11 10 9 12 8 4 2 1 6 6 7 6 7 6 13 13 20 16 15 14 13 10 7 8 10 11 15 15 15 16 15 11
12 7 8 14 9 9 17 11 13 15 17 10 14 8 9 3 10 5 3 2 6 5 10 8 8 9 9 11 15 13 16 16 12 10 9 7 10 12 12 14 15 14 13 10
16 3 5 11 5 6 6 12 15 13 8 14 6 9 10 5 4 8 12 8 8 9 7 9 10 13 10 15 19 15 12 8 8 9 9 10 10 11 12 13 11 9 10 13
14 10 3 7 10 8 8 13 13 9 5 8 10 8 8 7 10 9 4 9 9 10 7 11 10 12 16 12 11 11 9 14 13 9 9 11 11 12 13 11 10 10 8 9
17 12 13 5 6 11 15 10 9 16 13 10 13 1 7 13 13 8 4 4 8 11 13 13 13 13 16 17 17 14 13 15 9 8 16 13 13 10 11 13 8 11 7 9
14 2 6 1 4 5 10 9 9 10 18 13 6 6 9 9 9 2 2 5 7 9 13 14 15 12 14 16 18 18 15 15 14 16 20 18 12 13 13 13 12 11 9 7
5 12 5 8 5 10 7 10 9 8 9 11 7 6 7 6 6 3 2 4 12 16 13 11 12 12 14 17 18 17 18 17 22 15 17 16 16 16 15 11 13 12 11 11
7 3 2 6 3 9 8 6 2 4 8 9 12 8 5 6 4 4 10 11 9 11 12 14 15 15 16 16 17 18 19 20 22 22 20 20 22 20 18 17 14 13 13 12
6 5 9 5 5 3 3 7 7 7 2 9 6 4 6 5 8 11 13 8 7 11 14 14 14 14 14 16 17 18 19 19 19 20 27 18 17 21 23 20 13 15 16 14
4 2 8 12 10 4 5 3 5 5 7 10 7 5 6 8 9 6 6 9 13 11 11 13 14 16 17 17 18 19 20 20 21 25 22 21 22 19 21 21 20 16 15 16
2 3 8 11 8 5 3 1 3 4 7 11 9 6 9 5 2 3 7 10 10 10 11 13 15 18 18 17 19 20 20 20 21 22 21 22 21 20 21 22 18 16 13 14
3 5 6 4 4 4 3 4 5 8 6 6 12 9 10 6 8 6 7 9 10 11 12 14 15 18 18 19 19 20 20 20 22 21 22 28 23 20 19 20 16 14 12 15
1 2 6 4 3 5 6 3 3 3 6 8 7 4 5 4 6 8 8 9 11 13 14 17 17 18 18 19 20 20 20 22 21 25 23 26 28 19 19 20 13 14 11 15
2 1 6 6 1 6 9 9 5 4 5 5 9 7 6 7 8 7 8 9 12 14 16 18 19 18 18 19 20 19 21 23 24 22 25 23 27 21 21 16 15 13 14 12
2 4 3 4 2 9 6 4 4 8 7 5 4 2 6 6 6 7 5 9 13 17 19 20 20 20 19 21 21 24 23 23 23 23 23 24 25 20 10 8 10 10 12 13
5 6 5 5 8 9 12 3 1 5 9 2 5 2 4 6 10 9 3 11 15 18 20 21 21 21 21 23 23 23 21 22 19 20 22 25 22 20 12 9 14 10 12 13
6 8 8 6 10 12 8 5 4 4 7 10 2 4 4 6 9 9 15 15 18 19 19 20 21 20 20 21 19 20 18 19 17 20 23 25 21 17 15 11 12 13 11 12
7 6 9 9 11 5 8 6 3 5 5 4 3 1 2 5 8 12 14 16 17 17 18 17 18 18 18 18 20 21 21 19 22 21 21 21 21 17 13 14 11 15 15 13
9 7 9 6 7 5 7 5 5 5 1 1 1 1 3 6 10 12 14 16 16 16 16 16 17 17 16 16 20 19 20 22 20 21 20 21 20 17 15 15 13 9 12 17
3 5 7 5 5 5 2 4 5 2 2 2 1 2 6 8 11 13 14 14 14 14 16 16 15 16 16 18 18 17 18 18 19 19 19 19 19 17 15 15 12 9 7 7
6 3 4 4 7 4 5 5 4 2 2 2 2 4 7 9 11 13 13 12 13 14 14 15 16 17 16 16 16 18 20 19 21 20 19 19 17 18 15 15 12 8 8 5
5 2 4 5 5 5 6 5 4 4 3 4 4 4 6 8 11 11 11 11 11 12 13 15 16 15 16 15 17 17 19 21 19 18 17 18 19 15 15 15 14 11 7 12
4 6 4 5 5 4 4 8 5 4 3 2 4 6 9 9 9 9 9 9 10 11 13 15 15 14 15 16 15 17 17 18 19 18 16 18 15 16 12 13 14 12 8 8
Wind_Direction
208 270 142 257 17 346 314 315 306 85 156 275 25 142 171 198 234 249 252 244 244 239 236 223 223 226 239 234 248 276 265 259 268 300 321 330 325 311 306 310 311 305 300 303
259 252 76 6 338 311 291 293 102 231 136 250 156 160 193 182 218 249 319 201 222 226 212 202 228 237 235 246 261 254 260 245 254 278 291 318 333 318 292 290 295 308 298 294
274 296 90 310 292 266 312 244 333 331 130 249 275 192 159 163 218 227 344 300 200 238 224 195 212 231 250 248 243 251 249 240 242 250 296 312 315 284 289 297 302 295 289 288
277 7 320 294 283 317 307 338 316 297 275 311 196 292 146 165 165 115 103 161 243 234 261 260 265 225 252 243 236 231 241 237 241 244 268 290 321 296 296 291 286 285 281 260
272 301 298 303 2 335 297 331 310 299 290 265 222 285 128 131 96 109 134 287 29 2 346 293 284 317 296 284 231 235 246 224 231 230 246 287 312 296 296 288 294 300 303 278
264 9 311 324 319 318 331 276 271 262 277 250 74 202 125 129 107 89 52 31 13 5 346 326 297 331 313 292 305 309 303 195 218 226 250 269 292 295 288 296 296 296 297 309
255 271 88 293 264 210 259 273 293 289 186 290 196 256 81 106 79 75 61 27 30 354 7 345 359 338 337 333 340 341 303 291 248 222 249 265 272 282 293 311 301 299 321 309
283 195 238 153 292 315 301 315 303 297 306 337 165 100 107 83 85 75 51 350 16 2 11 355 1 349 334 330 325 326 325 325 308 261 252 256 263 272 285 285 275 284 283 296
305 57 158 225 313 310 327 275 356 304 268 251 72 62 146 135 111 130 45 14 4 348 13 6 357 355 335 329 326 322 316 308 291 273 255 237 254 265 260 268 270 267 271 294
338 294 142 110 278 226 285 333 292 246 285 308 192 165 60 152 128 112 209 343 16 18 3 355 347 336 330 327 319 326 329 313 305 288 275 278 271 276 277 258 278 274 265 277
341 253 181 218 210 346 301 281 302 299 285 306 296 99 60 87 87 7 41 25 5 340 333 324 333 333 333 331 329 330 325 320 316 315 288 261 266 270 257 263 263 274 282 280
51 313 288 356 53 306 310 335 297 294 53 307 301 82 80 69 65 30 356 50 337 327 336 338 341 336 337 335 335 335 334 330 324 315 302 302 275 263 265 259 253 270 271 269
13 282 284 221 175 196 263 35 299 272 280 268 309 106 140 93 64 32 348 334 325 343 339 333 337 337 333 331 332 334 331 328 326 322 317 300 280 270 261 258 260 265 258 269
324 286 277 306 9 350 260 258 312 288 286 345 25 100 116 95 48 342 308 324 331 329 339 337 337 340 337 334 332 329 329 329 326 326 326 312 290 274 266 253 267 256 251 263
347 277 283 354 327 324 353 303 321 329 341 303 356 334 79 62 337 327 331 328 327 330 336 334 335 336 336 336 332 331 332 330 329 326 324 332 310 278 273 268 260 251 240 257
175 271 281 230 244 283 280 259 291 255 319 290 300 309 12 334 293 338 323 323 321 334 333 327 327 326 329 331 329 329 329 331 327 329 327 321 332 291 286 262 265 246 231 246
216 62 259 259 71 296 255 214 236 306 262 300 315 37 316 323 357 322 317 328 336 333 322 324 323 324 326 325 321 322 324 323 328 326 330 329 332 316 295 280 254 251 233 252
226 263 301 306 279 258 94 78 357 313 314 312 265 310 354 330 307 305 327 340 331 322 322 321 322 325 326 323 324 320 315 323 321 328 328 333 332 330 316 246 277 271 254 241
245 264 298 272 265 269 160 152 230 321 304 225 275 311 321 317 293 236 8 333 321 326 325 323 322 323 325 327 323 320 317 318 322 328 332 328 330 338 298 274 270 293 258 246
215 249 268 287 295 290 86 106 73 331 264 79 146 304 322 319 286 39 352 333 329 329 326 326 322 323 330 328 327 325 324 327 332 332 331 323 329 329 336 290 287 288 283 264
208 250 256 257 272 98 86 125 109 253 65 111 321 324 280 300 337 318 321 329 330 329 327 328 328 329 331 329 329 328 331 333 331 325 320 325 322 328 325 325 295 277 260 268
295 302 295 244 261 253 125 152 274 77 125 287 188 227 297 315 313 318 328 329 330 331 333 334 334 336 338 339 337 331 328 326 326 324 324 321 328 324 329 326 333 294 280 256
285 350 328 344 21 119 133 66 102 121 169 175 236 341 317 313 324 326 328 331 334 336 336 337 338 337 340 340 337 335 342 335 330 327 326 321 321 324 328 327 336 348 311 279
163 174 271 312 127 152 135 127 138 176 164 177 274 298 318 328 325 327 329 335 338 339 341 340 338 336 341 339 343 342 333 339 336 328 331 330 322 328 326 329 324 345 359 339
49 214 347 253 178 154 186 191 187 194 220 261 287 326 320 325 329 330 333 336 338 340 340 340 339 338 337 341 339 339 344 338 335 332 336 333 324 323 319 319 335 336 333 352
72 16 300 18 110 257 121 191 196 223 254 303 318 323 325 325 326 330 332 334 337 340 341 340 339 340 339 336 338 343 345 349 347 344 340 339 333 321 320 314 329 334 318 340